Regional Weather Roundup
Issued by NWS

Home | Current Version | Previous Version | Graphics & Text | Print | Product List | Glossary On
Versions: 1 2 3 4 5 6 7 8 9 10 11 12 13 14 15 16 17 18 19 20 21 22 23 24 25 26 27 28 29 30 31 32 33 34 35 36 37 38 39 40 41 42 43 44 45 46 47 48 49 50
000
ASUS43 KMPX 260601
RWRMN
WEATHER ROUNDUP FOR MINNESOTA
NATIONAL WEATHER SERVICE TWIN CITIES/CHANHASSEN MN
1200 AM CST FRI DEC 26 2014


NOTE: "FAIR" INDICATES FEW OR NO CLOUDS BELOW 12,000 FEET WITH NO
SIGNIFICANT WEATHER AND/OR OBSTRUCTIONS TO VISIBILITY. N/A MEANS
CURRENT SKY AND/OR WEATHER CONDITIONS ARE NOT AVAILABLE.

MNZ060>063-068>070-260700-
   Twin Cities Metro

CITY           SKY/WX    TMP DP  RH WIND       PRES   REMARKS
TWIN CITIES    CLOUDY    31  29  92 N8        29.86S WCI  23
6HR MIN TEMP:  30; 6HR MAX TEMP:  35;

ST PAUL        CLOUDY    32  30  92 N3        29.87F
CRYSTAL        CLOUDY    33  31  92 NE7       29.86S FOG     WCI  27
BLAINE         CLOUDY    34  34 100 N5        29.86F FOG     WCI  30
LAKEVILLE      CLOUDY    28  28 100 NE5       29.84S FOG     WCI  23
EDEN PRAIRIE   CLOUDY    32  30  92 N8        29.84F FOG     WCI  25
6HR MIN TEMP:  31; 6HR MAX TEMP:  34;

SOUTH ST PAUL  CLOUDY    33  31  92 N5        29.85F WCI  28
LAKE ELMO      MOCLDY    32  32 100 N3        29.87S FOG
$$
MNZ001>005-007-008-013>017-022>024-027-028-260700-
   Northwest Minnesota

CITY           SKY/WX    TMP DP  RH WIND       PRES   REMARKS
BEMIDJI        CLOUDY    25  21  87 N7        29.94S WCI  17
HALLOCK        CLOUDY    25  21  86 N10       30.03S WCI  15
ROSEAU         CLOUDY    27  21  80 NW6       29.99S WCI  20
WARROAD        CLOUDY    25  21  86 NW8       29.99R WCI  16
THIEF RVR FALL CLOUDY    25  21  86 NW9       29.99S WCI  15
CROOKSTON      CLOUDY    25  21  86 N13       30.02R WCI  13
FOSSTON        CLOUDY    23  19  86 N8        29.98R WCI  14
DETROIT LAKES  CLOUDY    27  25  93 N5        29.95F WCI  21
MOORHEAD       CLOUDY    27  27 100 N13       30.00S WCI  16
PARK RAPIDS    CLOUDY    26  21  81 N8        29.93R WCI  18
MAHNOMEN       CLOUDY    25  22  86 N9        29.96S WCI  16
$$
MNZ006-009>011-018-025>026-260700-
   North Central Minnesota

CITY           SKY/WX    TMP DP  RH WIND       PRES   REMARKS
BAUDETTE       CLOUDY    25  21  85 NW10      29.96R WCI  15
FLAG ISLAND    CLOUDY    23  19  86 NW10      29.97R WCI  12
INTL FALLS     CLOUDY    27  24  89 NW5       29.93R WCI  22
6HR MIN TEMP:  27; 6HR MAX TEMP:  28;

WASKISH        CLOUDY    27  21  80 CALM      29.95S
BIG FORK       MIX PCPN  27  21  80 CALM      29.94R
LONGVILLE      CLOUDY    27  21  80 N5        29.93S WCI  21
GRAND RAPIDS   CLOUDY    27  21  80 NW13      29.91S WCI  16
CRANE LAKE     CLOUDY    27  21  80 CALM      29.94S
ORR            CLOUDY    27  19  74 CALM      29.90S
COOK           CLOUDY    27  21  80 CALM      29.92S
WALKER         CLOUDY    25  21  86 N5        29.94R WCI  19
$$
MNZ012-019>021-037-260700-
   Northeast Minnesota

CITY           SKY/WX    TMP DP  RH WIND       PRES   REMARKS
DULUTH         CLOUDY    30  23  75 N3        29.88R
6HR MIN TEMP:  30; 6HR MAX TEMP:  31;

ELY            CLOUDY    27  21  80 NW5       29.90R WCI  21
HIBBING        CLOUDY    29  21  72 NW9       29.91R WCI  20
EVELETH        CLOUDY    30  27  86 NW7       29.92R WCI  23
DULUTH HARBOR  CLOUDY    34  28  80 CALM      29.93R
TWO HARBORS    CLOUDY    34  27  75 CALM      29.88S
SILVER BAY     CLOUDY    32  27  80 CALM      29.89R
GRAND MARAIS     N/A     32  26  78 NW6       29.91R WCI  26
G MARAIS ARPRT CLOUDY    25  21  86 CALM      29.86S
$$
MNZ029>031-032-039>041-046>048-054>057-064-260700-
   West Central Minnesota

CITY           SKY/WX    TMP DP  RH WIND       PRES   REMARKS
FERGUS FALLS   CLOUDY    25  19  80 N10       29.98S WCI  15
WHEATON        CLOUDY    25  21  86 N12       29.98S WCI  14
MORRIS         LGT SNOW  27  25  93 N13       29.92S WCI  16
ALEXANDRIA     LGT SNOW  27  24  89 N8        29.91S FOG     WCI  19
ELBOW LAKE     CLOUDY    26  23  88 N9        29.93S WCI  16
WADENA         CLOUDY    25  21  86 N8        29.92S WCI  16
GLENWOOD       LGT SNOW  27  27 100 N9        29.90S WCI  17
APPLETON       LGT SNOW  28  27  93 N17       29.91F WCI  16
BENSON         LGT SNOW  28  27  93 N13       29.90F WCI  18
ORTONVILLE     LGT SNOW  27  23  86 N14       29.93S WCI  15
MADISON          N/A     32  30  93 N16       29.90F FOG     WCI  21
WILLMAR        CLOUDY    30  28  93 N10       29.88S WCI  21
$$
MNZ033>034-036-042>043-049>051-058-059-260700-
   Central Minnesota

CITY           SKY/WX    TMP DP  RH WIND       PRES   REMARKS
ST CLOUD       LGT SNOW  32  28  85 N10       29.87F FOG     WCI  24
6HR MIN TEMP:  32; 6HR MAX TEMP:  36; 6HR PCP:  0.06;

SAUK CENTRE    LGT SNOW  28  27  96 N5        29.90S WCI  23
PAYNESVILLE    CLOUDY    27  27  99 NW8       29.88F WCI  19
AITKIN         CLOUDY    32  25  74 N7        29.89S WCI  26
PINE RIVER     CLOUDY    27  23  86 N10       29.95S WCI  17
BRAINERD       CLOUDY    29  23  78 N10       29.92R WCI  20
STAPLES        CLOUDY    27  21  80 N9        29.91S WCI  17
LONG PRAIRIE   LGT SNOW  28  27  93 N6        29.90S WCI  22
LITTLE FALLS   LGT SNOW  30  28  93 N3        29.91S
LITCHFIELD     CLOUDY    32  32 100 N7        29.87S WCI  26
BUFFALO        CLOUDY    32  31  95 N5        29.87S FOG     WCI  27
MAPLE LAKE     CLOUDY    32  32 100 N5        29.88R FOG     WCI  27
$$
MNZ037-044-045-052-053-260700-
   East Central Minnesota

CITY           SKY/WX    TMP DP  RH WIND       PRES   REMARKS
PRINCETON      CLOUDY    32  30  93 CALM      29.88S FOG
MORA           CLOUDY    32  30  93 CALM      29.91S
CAMBRIDGE      LGT SNOW  34  27  75 CALM      29.86S
RUSH CITY      CLOUDY    31  31  99 N3        29.88F
MOOSE LAKE     LGT SNOW  30  28  93 CALM      29.89S
HINCKLEY       MIX PCPN  32  32 100 CALM      29.90R
CLOQUET        CLOUDY    28  25  86 CALM      29.89S
MCGREGOR       CLOUDY    30  27  86 NW5       29.91R WCI  25
$$
MNZ071>073-080-081-089-090-097-098-260700-
   Southwest Minnesota

CITY           SKY/WX    TMP DP  RH WIND       PRES   REMARKS
MONTEVIDEO     CLOUDY    28  28 100 NE13      29.89F WCI  18
GRANITE FALLS  CLOUDY    30  28  94 N13       29.89S WCI  20
CANBY          CLOUDY    28  27  94 N12       29.90S WCI  18
MARSHALL       CLOUDY    28  25  86 N17G23    29.86S WCI  16
REDWOOD FALLS  CLOUDY    32  30  92 N12       29.84F WCI  23
OLIVIA         CLOUDY    30  30 100 N13       29.85F WCI  20
PIPESTONE      CLOUDY    28  27  93 NE16G23   29.81S WCI  17
WINDOM         CLOUDY    30  30 100 N10G18    29.81S FOG     WCI  21
WORTHINGTON    CLOUDY    30 -17  12 N16       29.81R WCI  19
JACKSON        CLOUDY    32  32 100 N14       29.79S FOG     WCI  22
TRACY          CLOUDY    31  30  98 N14       29.84S FOG     WCI  20
SLAYTON        CLOUDY    28  28 100 N18       29.82S FOG     WCI  16
$$
MNZ065>067-074>077-082>085-091>093-260700-
   South Central Minnesota

CITY           SKY/WX    TMP DP  RH WIND       PRES   REMARKS
MANKATO        CLOUDY    32  27  80 NE8       29.81F WCI  25
NEW ULM        CLOUDY    32  30  93 N6        29.83S FOG     WCI  26
ST JAMES       CLOUDY    34  30  86 N9        29.83S FOG     WCI  26
FAIRMONT       CLOUDY    32  28  86 N10       29.79S WCI  24
GLENCOE        CLOUDY    33  32  97 N5        29.84S FOG     WCI  28
FARIBAULT      CLOUDY    30  30 100 N7        29.82F WCI  23
OWATONNA       PTCLDY    32  28  86 E6        29.81S WCI  26
ALBERT LEA     CLOUDY    30  30 100 NE5       29.78S WCI  25
$$
MNZ078>079-086>088-094>096-260700-
   Southeast Minnesota

CITY           SKY/WX    TMP DP  RH WIND       PRES   REMARKS
ROCHESTER      PTCLDY    29  26  89 E3        29.80F
6HR MIN TEMP:  27; 6HR MAX TEMP:  33;

RED WING       CLEAR     30  27  86 E3        29.84F
STANTON        CLOUDY    31  30  93 N5        29.82F FOG     WCI  27
DODGE CENTER   PTCLDY    27  27 100 N6        29.80F FOG     WCI  20
WINONA         MOCLDY    30  28  93 CALM      29.85S FOG
AUSTIN         PTCLDY    32  28  86 SE3       29.79S
PRESTON        PTCLDY    33  30  88 S6        29.81S WCI  28
$$
ABBREVIATIONS USED IN REMARKS
   TC - TEMPERATURES IN CELSIUS
  WCI - WIND CHILL INDEX
   HX - HEAT INDEX
  VSB - VISIBILITY
$$



USA.gov is the U.S. government's official web portal to all federal, state and local government web resources and services.